Date,TemperatureHighF,TemperatureAvgF,TemperatureLowF,DewpointHighF,DewpointAvgF,DewpointLowF,HumidityHigh,HumidityAvg,HumidityLow,PressureMaxIn,PressureMinIn,WindSpeedMaxMPH,WindSpeedAvgMPH,GustSpeedMaxMPH,PrecipitationSumIn
2013-1-1,31,29,27,30,29,24,100,97,89,29.99,29.91,9,4,13,0.00
2013-1-2,27,22,16,17,13,10,79,70,59,30.18,30.10,9,3,13,0.00
2013-1-3,34,22,10,20,14,6,86,73,58,30.17,30.06,12,4,21,0.01
2013-1-4,33,27,25,22,19,17,82,72,57,30.19,30.08,16,9,26,0.02
2013-1-5,35,28,24,24,21,16,82,73,61,30.33,30.10,10,5,16,0.01
2013-1-6,36,33,30,30,27,23,90,78,69,30.15,29.95,11,5,15,0.00
2013-1-7,33,29,22,28,25,19,87,83,70,30.40,30.14,8,3,11,0.00
2013-1-8,45,29,17,29,22,14,90,76,50,30.32,30.20,10,2,14,0.00
2013-1-9,45,36,25,40,31,21,92,82,66,30.42,30.17,15,5,22,0.01
2013-1-10,41,36,27,33,28,24,91,75,61,30.55,30.26,4,2,6,0.00
2013-1-11,50,45,39,50,40,27,100,83,57,30.26,29.95,9,4,14,0.26
2013-1-12,61,53,44,58,52,44,100,95,82,30.07,29.95,10,2,14,0.00
2013-1-13,67,60,54,56,53,50,100,78,62,29.95,29.85,17,6,24,0.18
2013-1-14,56,39,31,56,34,24,100,81,55,30.31,29.87,11,3,17,0.05
2013-1-15,34,30,23,28,24,21,90,80,70,30.34,30.03,5,2,8,0.00
2013-1-16,32,31,30,32,31,28,100,97,90,30.03,29.84,10,3,15,0.09
2013-1-17,32,31,29,29,28,27,95,89,84,30.13,29.95,9,3,21,0.01
2013-1-18,31,26,17,27,15,10,91,66,49,30.43,30.08,15,6,16,0.01
2013-1-19,51,41,29,20,14,8,56,35,18,30.21,29.81,18,11,26,0.17
2013-1-20,45,34,22,29,18,11,68,51,36,30.09,29.75,20,8,31,0.13
2013-1-21,24,20,10,18,12,-3,84,70,59,30.06,29.85,13,4,19,0.00
2013-1-22,13,8,5,4,-2,-6,78,64,49,30.19,29.97,13,6,21,0.00
2013-1-23,16,10,3,8,0,-3,78,66,51,30.22,30.00,12,4,19,0.00
2013-1-24,25,15,9,13,5,-6,85,66,30,30.46,29.99,7,2,12,0.00
2013-1-25,20,14,8,15,8,1,90,76,66,30.44,29.96,6,2,11,0.00
2013-1-26,27,20,15,22,17,10,94,87,78,30.38,30.02,6,2,9,0.00
2013-1-27,36,23,6,21,14,2,86,69,45,30.48,30.26,5,1,7,0.09
2013-1-28,48,39,30,48,37,21,100,94,69,30.27,29.98,13,5,19,0.24
2013-1-29,62,53,47,56,51,44,100,91,73,30.02,29.78,13,6,19,0.02
2013-1-30,70,57,47,56,52,44,100,83,60,29.79,29.24,18,9,30,1.05
2013-1-31,48,27,20,44,21,10,97,78,55,29.81,29.21,22,11,31,0.17
2013-2-1,21,14,8,19,7,0,94,73,61,30.27,29.77,12,6,21,0.00
2013-2-2,22,14,6,20,11,1,96,85,72,30.25,29.91,13,5,20,0.00
2013-2-3,26,21,15,23,19,12,97,89,77,29.96,29.76,10,3,16,0.00
2013-2-4,26,20,15,24,16,9,94,83,66,30.01,29.81,11,4,17,0.00
2013-2-5,30,27,25,30,26,24,99,96,89,29.90,29.77,5,0,8,0.00
2013-2-6,35,27,16,27,22,12,99,83,60,30.28,29.89,7,2,12,0.07
2013-2-7,44,30,15,29,22,11,87,74,52,30.25,29.95,9,4,14,0.02
2013-2-8,38,31,24,36,28,20,99,87,76,30.08,29.76,9,3,14,0.14
2013-2-9,39,26,18,22,17,13,87,72,43,30.33,30.08,6,1,10,0.00
2013-2-10,55,34,16,23,17,11,85,56,22,30.31,29.93,11,3,14,0.00
2013-2-11,61,47,35,47,34,21,97,64,25,29.95,29.63,24,10,36,0.73
2013-2-12,43,34,27,28,24,21,80,66,51,30.03,29.88,13,4,24,0.00
2013-2-13,41,30,22,30,25,18,97,82,59,29.89,29.64,5,1,7,0.00
2013-2-14,39,32,26,34,29,24,97,88,69,29.92,29.81,15,4,18,0.17
2013-2-15,38,34,28,34,28,25,93,81,62,30.01,29.87,11,4,16,0.01
2013-2-16,32,24,17,25,18,12,89,77,57,30.00,29.86,6,1,8,0.04
2013-2-17,25,18,14,17,11,3,89,74,55,30.19,29.85,9,4,16,0.00
2013-2-18,42,26,7,29,12,1,81,59,36,30.24,29.86,10,3,14,0.04
2013-2-19,44,35,23,38,28,13,95,76,44,29.88,29.64,17,10,28,0.30
2013-2-20,23,18,16,15,12,8,89,77,60,30.15,29.88,13,6,21,0.04
2013-2-21,27,19,15,18,13,9,88,77,59,30.29,30.11,8,3,12,0.00
2013-2-22,34,29,18,30,24,13,92,81,60,30.22,29.96,13,4,18,0.01
2013-2-23,46,36,31,38,32,28,91,85,73,29.97,29.81,5,2,8,0.00
2013-2-24,32,28,26,29,23,20,92,82,69,30.09,29.81,8,2,12,0.00
2013-2-25,47,33,22,28,23,19,90,68,39,30.18,30.02,7,2,14,0.00
2013-2-26,40,35,30,34,27,20,95,74,55,30.04,29.57,17,7,25,0.67
2013-2-27,42,37,32,39,35,31,100,94,82,29.65,29.54,12,5,20,0.20
2013-2-28,32,31,30,32,30,28,100,97,90,29.75,29.59,9,2,12,0.08
2013-3-1,31,29,25,31,26,21,100,89,81,29.92,29.75,5,0,8,0.00
2013-3-2,30,25,23,24,20,18,92,83,75,29.91,29.84,2,0,4,0.01
2013-3-3,27,24,21,22,20,16,93,85,70,29.95,29.85,8,2,12,0.00
2013-3-4,38,26,19,22,18,14,89,72,49,30.05,29.94,10,4,16,0.01
2013-3-5,50,33,18,24,18,11,86,59,21,30.04,29.67,13,4,21,0.00
2013-3-6,46,36,30,37,29,23,95,79,54,30.06,29.66,14,2,22,0.18
2013-3-7,42,35,31,32,29,26,90,78,58,30.23,30.05,5,2,10,0.00
2013-3-8,41,32,27,29,26,23,88,78,60,30.35,30.22,6,3,10,0.00
2013-3-9,55,38,21,32,24,14,90,62,32,30.36,30.14,6,2,8,0.00
2013-3-10,69,53,36,30,24,20,65,35,17,30.15,29.99,13,4,17,0.00
2013-3-11,62,54,47,48,32,23,93,45,23,30.00,29.70,22,6,28,0.13
2013-3-12,50,38,34,48,34,26,97,86,70,29.96,29.74,12,5,16,0.22
2013-3-13,35,30,25,30,25,17,97,81,66,30.06,29.88,13,5,21,0.07
2013-3-14,36,28,23,19,18,15,80,65,44,30.14,30.06,10,5,18,0.02
2013-3-15,48,35,24,35,25,14,85,66,51,30.09,29.78,13,4,24,0.01
2013-3-16,39,35,33,38,34,31,97,93,85,29.92,29.61,7,2,10,0.08
2013-3-17,37,32,27,31,25,21,95,75,59,30.15,29.92,6,2,10,0.00
2013-3-18,38,32,28,35,28,21,95,85,67,30.13,29.67,16,6,22,0.25
2013-3-19,44,36,28,41,26,12,100,71,32,29.92,29.66,25,8,33,0.50
2013-3-20,38,30,25,22,16,13,68,57,38,29.92,29.77,20,6,24,0.00
2013-3-21,27,23,17,20,12,5,85,65,44,29.85,29.79,11,5,17,0.00
2013-3-22,33,27,23,20,18,17,83,71,55,29.97,29.83,10,5,16,0.00
2013-3-23,47,32,21,28,20,16,86,65,34,29.99,29.93,10,2,14,0.00
2013-3-24,44,33,25,27,22,18,83,67,43,29.97,29.51,12,5,17,0.00
2013-3-25,36,32,30,33,31,27,99,94,83,29.70,29.44,10,3,14,0.37
2013-3-26,42,35,28,35,31,28,99,86,60,30.02,29.69,7,2,15,0.12
2013-3-27,41,34,30,31,29,24,98,83,54,30.11,30.00,12,4,14,0.04
2013-3-28,41,36,31,34,31,28,98,83,67,30.22,30.07,6,3,10,0.02
2013-3-29,54,41,34,33,28,19,86,63,28,30.22,30.11,9,2,15,0.00
2013-3-30,55,41,27,28,21,13,79,48,20,30.21,30.01,12,2,13,0.00
2013-3-31,49,44,38,44,33,20,87,66,43,30.01,29.70,11,3,14,0.06
2013-4-1,44,39,30,39,28,10,91,67,29,29.97,29.68,11,5,14,0.08
2013-4-2,39,30,23,24,15,10,80,56,31,30.14,29.97,12,4,27,0.00
2013-4-3,40,30,23,20,13,5,71,49,28,30.36,30.12,11,3,14,0.00
2013-4-4,55,37,17,19,12,2,81,43,15,30.34,29.94,9,3,11,0.00
2013-4-5,58,43,30,32,20,15,63,41,22,30.14,29.90,10,3,20,0.00
2013-4-6,60,42,23,24,14,4,78,40,15,30.25,30.01,9,3,14,0.00
2013-4-7,71,59,49,46,32,13,63,37,23,30.01,29.87,20,9,30,0.01
2013-4-8,72,61,46,49,43,39,81,54,32,30.03,29.89,15,6,23,0.00
2013-4-9,78,68,56,54,50,45,81,55,37,30.09,29.90,12,5,19,0.00
2013-4-10,78,66,58,64,56,50,98,71,48,29.97,29.81,17,4,23,0.50
2013-4-11,75,63,54,60,56,50,100,81,55,29.89,29.62,11,4,17,0.00
2013-4-12,64,56,43,60,49,32,100,79,56,29.84,29.52,17,7,23,0.37
2013-4-13,52,44,37,35,32,29,80,64,44,29.99,29.83,15,5,21,0.00
2013-4-14,63,48,32,34,30,25,79,53,27,30.14,29.99,10,3,14,0.00
2013-4-15,66,59,54,48,43,34,70,55,45,30.12,29.98,18,8,24,0.00
2013-4-16,77,63,53,58,53,47,96,70,49,30.19,30.03,15,6,23,0.40
2013-4-17,69,60,51,56,53,49,98,80,57,30.24,30.10,8,3,11,0.00
2013-4-18,82,70,59,59,56,52,88,63,37,30.12,29.81,18,9,23,0.00
2013-4-19,71,59,42,60,48,29,92,68,57,29.85,29.50,23,10,34,0.17
2013-4-20,48,40,32,31,26,21,81,59,39,30.36,29.84,19,6,22,0.00
2013-4-21,57,42,26,29,22,12,86,50,18,30.55,30.36,10,3,13,0.00
2013-4-22,62,50,40,28,22,13,50,36,16,30.44,30.26,12,6,17,0.00
2013-4-23,70,55,38,37,30,20,73,43,15,30.27,29.96,9,4,13,0.00
2013-4-24,69,55,38,56,43,34,93,66,47,30.13,29.75,20,8,27,0.25
2013-4-25,56,44,34,37,31,21,90,63,26,30.33,30.13,14,5,21,0.00
2013-4-26,62,48,34,42,31,21,91,58,22,30.44,30.32,9,2,14,0.01
2013-4-27,75,56,34,39,30,20,83,45,15,30.37,30.17,10,3,15,0.00
2013-4-28,58,54,52,52,45,36,93,72,43,30.17,29.96,11,5,16,0.20
2013-4-29,62,56,52,58,52,46,97,86,75,30.03,29.94,10,3,13,0.17
2013-4-30,73,60,53,55,52,49,96,74,48,30.19,30.03,10,5,17,0.01
2013-5-1,76,63,51,51,42,26,84,52,21,30.32,30.19,11,5,16,0.00
2013-5-2,78,63,47,42,31,19,63,33,15,30.36,30.22,10,5,15,0.00
2013-5-3,72,61,45,40,36,24,73,42,19,30.26,30.17,13,6,22,0.00
2013-5-4,71,59,43,41,38,34,76,48,28,30.22,30.09,13,5,21,0.00
2013-5-5,74,60,48,42,30,16,70,38,15,30.16,30.03,13,6,20,0.00
2013-5-6,70,59,46,51,42,31,69,55,42,30.09,30.01,14,7,20,0.00
2013-5-7,69,60,55,56,47,38,91,62,53,30.03,29.95,11,4,22,0.07
2013-5-8,76,63,52,56,52,46,98,72,37,29.99,29.88,8,3,11,0.24
2013-5-9,75,62,52,59,53,49,98,76,42,29.99,29.90,11,2,14,0.05
2013-5-10,74,62,56,63,57,51,100,85,62,30.00,29.81,11,5,16,0.37
2013-5-11,59,55,49,59,54,48,100,97,89,29.83,29.77,10,3,19,0.18
2013-5-12,51,46,37,49,33,24,97,64,36,30.02,29.81,14,6,24,0.07
2013-5-13,51,42,33,32,27,20,89,59,31,30.15,30.02,12,4,17,0.00
2013-5-14,57,45,29,39,33,26,90,65,45,30.17,29.89,9,2,13,0.00
2013-5-15,84,67,50,61,52,37,79,60,40,29.89,29.72,20,7,27,0.06
2013-5-16,78,68,60,64,54,40,100,67,27,29.98,29.77,10,4,16,0.28
2013-5-17,80,66,53,62,55,47,100,72,34,30.11,29.98,8,2,12,0.00
2013-5-18,84,68,53,60,54,47,85,65,37,30.15,30.04,8,3,11,0.00
2013-5-19,76,66,57,64,59,56,96,79,61,30.12,30.00,8,4,12,0.05
2013-5-20,84,72,60,67,63,58,99,77,50,30.06,29.93,9,3,14,0.01
2013-5-21,84,74,65,70,66,62,100,77,51,29.98,29.85,12,5,18,0.06
2013-5-22,84,70,62,66,62,60,96,78,47,29.91,29.80,12,5,17,0.02
2013-5-23,75,63,51,66,60,51,100,92,58,29.87,29.78,11,5,16,0.66
2013-5-24,51,44,38,51,39,32,100,85,64,30.25,29.87,10,5,14,0.06
2013-5-25,61,47,32,42,35,29,97,67,33,30.27,30.18,15,4,17,0.00
2013-5-26,66,51,36,40,36,32,87,59,31,30.26,30.19,12,3,18,0.00
2013-5-27,64,53,37,50,42,35,92,68,39,30.26,30.10,5,2,6,0.00
2013-5-28,76,64,52,68,59,47,100,85,66,30.10,29.99,12,4,17,0.27
2013-5-29,83,73,65,64,60,57,83,65,46,30.10,30.02,13,6,23,0.00
2013-5-30,86,74,62,67,63,56,91,69,39,30.20,30.09,9,2,14,0.00
2013-5-31,86,75,64,66,63,61,96,69,45,30.14,30.00,9,4,14,0.00
2013-6-1,84,75,66,66,64,61,92,70,51,30.04,29.83,14,5,21,0.00
2013-6-2,78,72,65,68,63,58,99,75,53,29.88,29.81,15,6,22,0.18
2013-6-3,66,61,48,61,55,43,90,81,66,30.06,29.88,7,2,8,0.00
2013-6-4,74,58,41,50,45,39,94,66,35,30.16,30.06,6,2,10,0.00
2013-6-5,82,66,50,60,53,46,88,65,44,30.14,29.95,7,3,11,0.00
2013-6-6,68,63,60,65,61,57,100,94,70,29.96,29.80,7,3,11,1.43
2013-6-7,66,62,58,65,62,56,100,97,90,29.85,29.75,4,2,8,0.06
2013-6-8,70,60,52,58,55,52,100,85,59,30.12,29.84,6,2,9,0.00
2013-6-9,83,69,54,64,60,53,100,74,45,30.18,30.04,6,2,10,0.00
2013-6-10,74,68,63,71,66,62,100,95,80,30.04,29.80,10,4,14,0.44
2013-6-11,74,66,62,69,64,62,100,93,70,29.91,29.79,9,4,13,0.17
2013-6-12,81,71,62,70,66,61,100,85,56,29.93,29.77,8,2,10,0.00
2013-6-13,72,65,56,71,63,53,100,94,84,29.79,29.56,14,5,21,0.71
2013-6-14,72,62,54,61,56,54,100,85,58,30.06,29.79,8,2,12,0.00
2013-6-15,78,65,51,58,52,40,100,68,29,30.13,30.01,7,2,13,0.00
2013-6-16,72,65,60,69,62,54,100,91,69,30.04,29.91,10,4,17,0.34
2013-6-17,82,72,65,68,63,56,100,77,44,29.99,29.91,7,3,12,0.00
2013-6-18,76,67,61,67,64,60,98,88,71,29.95,29.85,4,1,7,0.02
2013-6-19,77,65,54,61,53,44,98,69,34,30.15,29.95,6,2,13,0.01
2013-6-20,82,66,49,61,52,45,97,65,29,30.24,30.15,7,1,12,0.00
2013-6-21,85,71,54,64,57,52,96,67,35,30.27,30.17,6,2,8,0.00
2013-6-22,85,73,59,69,64,57,98,75,52,30.22,30.09,8,3,12,0.00
2013-6-23,88,76,64,70,66,62,98,73,45,30.18,30.07,9,3,15,0.00
2013-6-24,88,77,67,70,67,62,94,73,44,30.16,30.01,9,3,13,0.00
2013-6-25,86,74,64,69,66,61,98,79,50,30.07,29.90,12,5,20,0.35
2013-6-26,81,71,64,71,67,64,100,88,61,30.03,29.84,9,3,13,1.31
2013-6-27,74,69,65,72,68,65,100,97,90,29.84,29.65,8,3,16,0.37
2013-6-28,75,66,61,71,65,61,100,95,75,29.68,29.52,12,3,14,0.31
2013-6-29,78,67,60,69,63,60,100,90,60,29.72,29.56,12,4,17,0.30
2013-6-30,84,70,60,72,65,60,100,85,51,29.87,29.71,10,2,19,0.01
2013-7-1,80,70,64,71,67,64,100,92,71,29.98,29.83,6,2,8,0.38
2013-7-2,82,73,66,74,69,66,100,87,65,30.09,29.96,6,2,10,0.06
2013-7-3,85,75,68,72,68,65,94,80,57,30.19,30.08,10,3,12,0.00
2013-7-4,86,75,68,71,69,66,100,84,54,30.24,30.14,8,2,13,0.06
2013-7-5,85,75,68,71,68,67,100,82,57,30.19,30.11,11,4,18,0.01
2013-7-6,88,77,68,74,70,68,100,80,51,30.20,30.05,8,2,11,0.02
2013-7-7,78,72,68,71,69,67,99,90,72,30.13,30.03,8,3,11,0.05
2013-7-8,82,72,65,70,67,64,100,85,60,30.14,30.06,8,3,11,0.00
2013-7-9,80,72,66,75,70,66,100,94,83,30.12,29.99,11,5,15,0.21
2013-7-10,83,70,64,77,69,64,100,96,80,30.03,29.84,11,5,38,1.06
2013-7-11,79,68,61,69,64,58,100,86,61,30.01,29.90,5,2,9,0.01
2013-7-12,75,66,57,66,62,56,100,89,73,30.13,30.00,5,2,8,0.01
2013-7-13,82,72,62,69,66,61,100,83,63,30.25,30.10,6,2,8,0.00
2013-7-14,88,78,67,71,68,66,98,74,51,30.32,30.24,9,3,14,0.00
2013-7-15,90,78,68,72,69,66,98,76,47,30.36,30.26,6,2,10,0.00
2013-7-16,92,78,69,77,72,69,99,84,55,30.34,30.25,9,2,13,0.00
2013-7-17,91,76,69,78,73,69,100,89,60,30.32,30.19,5,2,8,0.01
2013-7-18,91,78,68,78,74,68,100,87,60,30.21,30.05,8,2,11,0.08
2013-7-19,89,78,71,78,73,70,100,87,58,30.06,29.90,13,5,19,0.02
2013-7-20,80,73,68,74,70,67,100,91,77,29.95,29.87,13,4,17,0.11
2013-7-21,84,72,66,72,69,67,100,91,61,30.00,29.93,6,2,11,0.19
2013-7-22,81,70,64,75,69,64,100,96,77,29.98,29.80,16,2,22,1.42
2013-7-23,81,70,63,71,67,63,100,91,64,29.81,29.71,8,3,11,0.05
2013-7-24,73,65,56,64,59,54,100,82,58,30.00,29.77,9,2,10,0.18
2013-7-25,77,64,52,58,54,51,97,75,44,30.09,29.99,6,2,11,0.00
2013-7-26,80,66,52,62,56,51,99,72,42,30.11,30.01,8,2,10,0.00
2013-7-27,71,64,58,69,63,57,100,96,84,30.03,29.87,5,2,8,0.50
2013-7-28,74,66,58,66,61,55,100,86,57,30.05,29.87,10,4,14,0.18
2013-7-29,72,62,53,60,56,52,99,81,54,30.20,30.05,9,2,15,0.00
2013-7-30,77,64,51,63,57,51,100,79,50,30.25,30.16,7,1,13,0.00
2013-7-31,81,67,57,66,62,56,100,85,50,30.17,29.98,6,2,9,0.00
2013-8-1,80,69,64,70,65,61,100,88,57,29.98,29.88,8,3,11,0.09
2013-8-2,75,67,59,64,59,52,100,79,47,30.00,29.91,11,3,15,0.00
2013-8-3,73,66,58,68,64,57,100,94,78,30.01,29.94,11,4,14,0.30
2013-8-4,75,63,53,64,57,53,100,84,53,30.10,30.00,6,2,8,0.08
2013-8-5,75,62,51,59,55,51,100,79,46,30.14,30.04,7,1,10,0.00
2013-8-6,80,68,55,66,58,52,100,75,42,30.05,29.99,7,2,10,0.00
2013-8-7,82,70,61,72,66,60,100,88,66,30.02,29.95,8,2,10,0.74
2013-8-8,84,73,64,75,70,64,100,89,70,30.01,29.93,9,3,12,0.00
2013-8-9,76,72,65,76,71,65,100,97,88,30.03,29.91,8,3,11,0.34
2013-8-10,82,70,61,68,65,61,100,85,58,30.11,30.03,5,1,8,0.00
2013-8-11,82,70,60,68,64,60,100,83,57,30.14,30.03,4,2,7,0.02
2013-8-12,81,71,63,70,66,63,100,86,61,30.08,29.91,8,2,13,0.01
2013-8-13,78,68,54,71,63,51,100,85,63,29.99,29.81,9,4,14,0.21
2013-8-14,66,57,48,56,52,48,100,86,64,30.15,29.98,10,2,12,0.00
2013-8-15,75,60,46,59,51,46,100,77,41,30.20,30.11,4,1,6,0.00
2013-8-16,79,64,51,61,55,51,99,75,41,30.18,30.12,5,1,7,0.00
2013-8-17,79,65,54,62,56,52,99,75,41,30.27,30.18,8,2,12,0.00
2013-8-18,72,65,59,66,58,51,98,81,74,30.24,30.15,7,1,8,0.02
2013-8-19,76,67,63,70,65,62,100,94,75,30.16,30.08,3,1,7,0.38
2013-8-20,83,69,57,68,62,57,100,82,46,30.21,30.11,5,1,8,0.01
2013-8-21,86,71,57,69,64,57,100,80,44,30.22,30.08,7,1,8,0.00
2013-8-22,81,71,64,73,68,64,100,92,68,30.12,29.99,10,4,17,0.17
2013-8-23,81,69,61,72,64,58,100,87,53,30.16,30.00,5,1,7,0.02
2013-8-24,81,67,56,65,59,55,99,77,44,30.31,30.16,6,2,8,0.00
2013-8-25,81,68,55,65,60,55,100,79,46,30.38,30.25,8,2,12,0.00
2013-8-26,84,70,59,68,63,59,100,81,54,30.26,30.04,11,4,17,0.00
2013-8-27,78,72,67,74,70,66,100,93,82,30.05,29.96,7,3,11,0.06
2013-8-28,72,69,66,72,69,67,100,100,100,29.99,29.84,8,2,12,2.43
2013-8-29,84,73,67,74,69,67,100,90,64,30.06,29.93,4,1,8,0.00
2013-8-30,84,73,62,73,68,62,100,87,64,30.03,29.86,9,3,13,0.00
2013-8-31,84,74,68,73,70,67,100,89,61,29.89,29.80,10,4,13,0.01
2013-9-1,77,72,68,73,70,68,100,96,86,29.88,29.81,7,2,11,0.08
2013-9-2,83,72,66,74,70,66,100,92,69,29.87,29.76,9,3,13,0.04
2013-9-3,73,64,57,66,60,56,100,87,60,30.05,29.85,9,2,11,0.02
2013-9-4,76,62,52,60,56,52,100,83,52,30.14,30.05,9,2,15,0.00
2013-9-5,75,62,51,63,56,48,100,81,46,30.22,30.08,9,3,12,0.00
2013-9-6,74,58,44,54,48,43,100,72,34,30.28,30.14,5,1,8,0.00
2013-9-7,79,62,46,59,52,45,98,75,41,30.14,29.96,9,2,11,0.00
2013-9-8,78,66,60,69,63,58,99,88,71,30.07,29.93,7,2,8,0.06
2013-9-9,79,66,55,71,63,54,100,91,73,30.12,30.04,6,2,10,0.40
2013-9-10,86,75,66,77,72,66,100,91,71,30.17,30.06,12,5,17,0.01
2013-9-11,86,74,70,78,72,68,100,96,69,30.18,30.04,9,3,14,0.93
2013-9-12,74,68,60,73,68,60,100,99,87,30.04,29.82,11,3,19,0.53
2013-9-13,67,57,48,61,55,48,100,93,71,30.03,29.82,9,2,11,0.09
2013-9-14,65,53,48,50,48,43,100,83,48,30.17,30.03,6,2,10,0.00
2013-9-15,68,56,43,58,51,43,100,85,56,30.19,30.07,7,2,11,0.00
2013-9-16,70,59,50,60,55,49,100,89,61,30.31,30.08,5,2,9,0.20
2013-9-17,71,55,44,54,47,41,100,76,38,30.40,30.27,6,2,11,0.01
2013-9-18,75,57,43,56,49,41,97,76,43,30.27,30.13,6,1,11,0.00
2013-9-19,76,64,56,65,59,54,100,87,57,30.16,30.05,7,2,10,0.00
2013-9-20,79,67,54,70,64,54,100,89,71,30.06,29.87,9,3,11,0.00
2013-9-21,69,63,56,67,62,56,100,96,88,29.87,29.70,9,3,12,0.81
2013-9-22,63,55,50,58,52,49,100,90,66,30.02,29.81,6,2,12,0.04
2013-9-23,57,50,42,49,46,41,100,87,66,30.15,30.02,6,1,8,0.00
2013-9-24,71,52,39,53,45,39,100,80,38,30.12,29.97,4,1,8,0.01
2013-9-25,78,58,45,57,49,44,99,78,32,29.99,29.90,5,1,8,0.00
2013-9-26,79,60,46,58,51,46,100,77,34,30.09,29.95,4,1,7,0.00
2013-9-27,76,61,50,60,53,49,99,79,44,30.21,30.09,5,2,7,0.00
2013-9-28,74,60,50,58,52,47,100,78,47,30.27,30.17,8,3,14,0.00
2013-9-29,75,60,48,58,52,46,98,78,48,30.17,30.02,6,2,9,0.00
2013-9-30,69,60,50,62,57,50,99,91,77,30.07,29.99,8,2,11,0.00
2013-10-1,76,64,58,64,60,58,100,87,57,30.10,30.02,10,2,14,0.00
2013-10-2,78,66,57,67,62,57,100,88,60,30.12,30.05,10,2,14,0.00
2013-10-3,77,66,57,67,63,57,100,90,67,30.12,30.04,11,2,14,0.05
2013-10-4,80,68,63,70,66,63,100,93,69,30.13,30.05,9,2,14,0.00
2013-10-5,80,68,64,71,67,64,100,96,74,30.12,30.01,9,2,11,0.72
2013-10-6,83,72,64,68,64,58,100,78,49,30.02,29.80,12,4,18,0.01
2013-10-7,71,56,46,61,50,43,100,82,63,30.13,29.72,12,6,17,0.26
2013-10-8,70,53,41,54,46,40,100,80,43,30.31,30.12,6,1,8,0.00
2013-10-9,69,54,42,51,44,40,99,73,35,30.34,30.24,7,2,11,0.00
2013-10-10,69,55,46,51,45,41,90,70,44,30.24,30.11,7,2,8,0.00
2013-10-11,58,54,50,58,52,47,100,96,83,30.11,30.06,4,2,7,0.22
2013-10-12,74,61,52,64,57,52,100,88,65,30.18,30.06,9,2,11,0.00
2013-10-13,70,61,56,62,58,54,99,89,69,30.28,30.17,6,2,11,0.01
2013-10-14,60,58,56,60,58,56,100,99,97,30.30,30.24,3,1,5,0.00
2013-10-15,70,61,49,62,57,49,100,88,70,30.23,30.00,6,2,10,0.01
2013-10-16,62,58,54,61,56,52,100,95,82,30.01,29.89,9,4,13,0.12
2013-10-17,61,54,48,61,54,48,100,98,89,29.92,29.67,9,2,16,0.72
2013-10-18,60,51,44,48,44,39,100,80,48,30.03,29.89,11,5,21,0.00
2013-10-19,52,45,37,48,42,37,100,91,74,29.99,29.76,10,3,14,0.04
2013-10-20,56,45,35,41,38,35,100,80,49,30.05,29.93,14,4,22,0.06
2013-10-21,65,51,38,40,36,31,92,61,30,30.06,29.86,13,4,17,0.00
2013-10-22,54,46,40,47,37,26,100,70,41,29.96,29.83,11,4,15,0.12
2013-10-23,41,39,34,40,37,34,100,93,79,29.91,29.75,9,2,14,0.11
2013-10-24,43,36,32,35,32,27,100,83,56,30.12,29.90,9,4,14,0.00
2013-10-25,46,37,30,37,31,27,100,82,50,30.30,30.12,11,3,17,0.00
2013-10-26,49,39,29,32,28,23,97,67,39,30.23,29.89,18,8,25,0.00
2013-10-27,52,42,34,38,32,29,94,70,43,30.10,29.96,10,3,16,0.00
2013-10-28,63,44,30,40,33,28,96,70,31,30.27,30.09,7,1,11,0.00
2013-10-29,65,48,34,44,38,32,95,71,37,30.36,30.25,5,1,9,0.00
2013-10-30,69,52,42,56,45,37,99,79,51,30.25,30.11,7,2,11,0.00
2013-10-31,66,60,55,59,57,55,100,90,74,30.12,29.52,17,7,23,0.15
2013-11-1,68,58,48,59,48,42,97,73,52,29.72,29.38,20,8,30,0.14
2013-11-2,51,47,42,45,43,40,100,86,68,29.94,29.67,12,4,18,0.05
2013-11-3,53,41,31,42,33,25,100,76,41,30.43,29.94,8,2,11,0.01
2013-11-4,48,37,28,26,22,17,81,58,32,30.53,30.41,8,3,11,0.00
2013-11-5,58,46,36,34,28,23,66,52,37,30.49,30.33,6,2,10,0.00
2013-11-6,70,55,35,55,43,28,89,64,44,30.34,29.93,14,5,21,0.00
2013-11-7,58,45,38,56,40,26,100,85,61,30.11,29.87,9,4,15,0.63
2013-11-8,43,36,28,32,28,22,85,71,48,30.27,30.06,10,4,14,0.00
2013-11-9,54,41,27,30,25,18,91,57,26,30.26,29.95,17,6,24,0.00
2013-11-10,50,43,35,37,31,26,76,63,39,30.25,29.94,14,6,22,0.00
2013-11-11,46,39,30,37,29,22,92,71,38,30.25,30.02,15,5,21,0.02
2013-11-12,40,31,25,35,25,18,98,80,47,30.42,30.06,6,2,11,0.07
2013-11-13,37,28,22,26,21,17,94,75,50,30.48,30.33,12,5,18,0.00
2013-11-14,47,35,25,22,20,15,86,58,30,30.33,30.16,14,8,20,0.00
2013-11-15,54,45,37,36,21,12,59,39,19,30.20,30.12,15,6,20,0.00
2013-11-16,61,51,37,48,43,34,93,73,58,30.23,30.04,10,3,15,0.00
2013-11-17,60,56,51,59,54,46,100,91,79,30.05,29.56,23,7,31,0.58
2013-11-18,56,47,37,53,36,25,91,66,40,30.03,29.63,16,10,30,0.08
2013-11-19,37,34,27,27,25,22,85,71,64,30.38,30.03,8,3,11,0.00
2013-11-20,51,36,24,27,17,5,89,53,16,30.45,30.35,14,4,17,0.00
2013-11-21,57,43,32,38,29,15,69,57,44,30.41,30.22,8,2,9,0.00
2013-11-22,51,48,36,51,46,33,100,94,68,30.22,30.05,7,4,13,0.17
2013-11-23,38,29,18,34,23,7,94,78,52,30.28,30.09,11,5,23,0.00
2013-11-24,25,18,14,15,10,6,84,70,55,30.47,30.28,9,5,16,0.00
2013-11-25,35,24,12,16,8,1,82,56,25,30.45,30.18,11,5,20,0.00
2013-11-26,36,32,29,34,32,14,100,97,42,30.19,29.69,12,2,16,0.92
2013-11-27,33,27,20,33,26,17,100,94,80,30.07,29.67,4,0,6,0.02
2013-11-28,29,23,16,20,16,12,91,75,54,30.38,30.07,0,0,1,0.01
2013-11-29,41,29,22,27,21,18,88,74,50,30.61,30.37,4,1,6,0.07
2013-11-30,40,30,22,25,21,18,85,72,50,30.58,30.20,7,3,11,0.04
2013-12-1,43,37,25,32,28,22,89,71,57,30.20,29.96,12,3,18,0.01
2013-12-2,51,41,36,38,34,30,91,75,60,29.96,29.81,6,1,9,0.00
2013-12-3,56,43,36,47,38,34,98,84,58,29.91,29.84,8,1,11,0.02
2013-12-4,62,48,35,50,42,33,96,80,63,30.00,29.89,7,2,8,0.00
2013-12-5,63,55,40,58,52,40,100,90,74,30.04,29.87,13,5,17,0.85
2013-12-6,40,34,28,40,34,28,100,99,95,30.24,30.01,4,1,8,0.28
2013-12-7,36,26,18,28,23,15,99,87,60,30.54,30.22,0,0,0,0.05
2013-12-8,29,23,16,29,20,13,99,87,81,30.54,30.05,0,0,0,0.00
2013-12-9,37,33,28,37,31,24,100,94,82,30.11,29.93,19,5,19,0.11
2013-12-10,28,24,20,24,18,7,96,78,47,30.21,29.99,9,1,14,0.00
2013-12-11,30,22,16,20,14,11,88,71,53,30.31,30.19,11,2,18,0.00
2013-12-12,21,17,10,14,6,2,84,63,47,30.41,30.20,13,6,18,0.00
2013-12-13,34,25,17,21,13,5,79,61,47,30.23,30.16,11,4,17,0.00
2013-12-14,35,31,27,35,28,21,100,88,70,30.21,29.64,10,2,16,0.14
2013-12-15,37,28,18,37,25,9,100,90,64,29.99,29.60,10,2,16,0.13
2013-12-16,24,20,16,20,14,9,86,77,65,30.13,29.99,0,0,0,0.00
2013-12-17,33,29,24,32,27,20,100,91,79,30.00,29.90,8,2,13,0.05
2013-12-18,33,25,21,29,21,17,96,86,73,30.17,29.99,11,5,19,0.00
2013-12-19,51,39,25,34,27,18,84,63,46,30.09,30.02,15,6,21,0.00
2013-12-20,54,49,40,50,38,26,100,70,42,30.02,29.90,14,7,21,0.02
2013-12-21,59,56,52,59,55,49,100,96,87,29.90,29.69,16,7,17,0.67
2013-12-22,67,58,53,60,55,49,100,90,73,29.95,29.59,23,10,32,0.21
2013-12-23,53,38,29,49,36,22,100,92,75,30.25,29.93,6,3,11,0.13
2013-12-24,29,22,13,24,15,7,94,75,56,30.47,30.19,8,2,12,0.00
2013-12-25,27,19,11,20,13,7,86,76,64,30.46,30.19,6,2,9,0.00
2013-12-26,37,28,24,28,22,15,100,79,55,30.32,30.11,15,6,24,0.08
2013-12-27,41,31,22,27,22,15,78,68,55,30.33,30.23,10,4,14,0.00
2013-12-28,52,39,31,30,25,20,67,56,40,30.24,30.05,16,7,17,0.00
2013-12-29,42,40,38,40,34,23,100,84,47,30.05,29.65,8,4,12,0.64
2013-12-30,38,26,21,38,23,16,100,89,76,30.15,29.82,8,1,19,0.00
2013-12-31,23,22,20,22,18,14,99,86,73,30.26,30.03,0,0,0,0.00
2014-1-1,38,28,22,30,23,18,89,81,69,30.28,30.02,6,2,8,0.01
2014-1-2,30,25,10,27,22,7,95,90,85,30.02,29.65,6,2,11,0.00